This is the latest recevied weather packets stored in our database for station/object CALDNA-WX. If no packets are shown the sender has not sent any weather packets the latest 10 day(s).
| Time | Temp. | Humidity | Pressure | Rain* | Wind** | Luminosity | Snow |
|---|---|---|---|---|---|---|---|
| 1778050846 | 5° C | 69% | 982.2 hPa | 0 mm | - | - | - |
| 1778049923 | 5° C | 69% | 982.6 hPa | 0 mm | - | - | - |
| 1778049041 | 5.56° C | 69% | 982.6 hPa | 0 mm | - | - | - |
| 1778048124 | 5.56° C | 69% | 982.6 hPa | 0 mm | - | - | - |
| 1778047254 | 5.56° C | 69% | 982.6 hPa | 0 mm | - | - | - |
| 1778046324 | 6.11° C | 71% | 983 hPa | 0 mm | - | - | - |
| 1778045439 | 6.11° C | 69% | 982.4 hPa | 0 mm | - | - | - |
| 1778044524 | 6.11° C | 69% | 982.4 hPa | 0 mm | - | - | - |
| 1778043654 | 6.11° C | 69% | 982.4 hPa | 0 mm | - | - | - |
| 1778042724 | 6.67° C | 65% | 983.2 hPa | 0 mm | - | - | - |
| 1778041839 | 6.67° C | 67% | 982.7 hPa | 0 mm | - | - | - |
| 1778040924 | 6.67° C | 67% | 982.8 hPa | 0 mm | - | - | - |
| 1778040055 | 6.67° C | 67% | 982.8 hPa | 0 mm | - | - | - |
| 1778039121 | 6.67° C | 64% | 982.4 hPa | 0 mm | - | - | - |
| 1778037323 | 6.67° C | 59% | 982.3 hPa | 0 mm | - | - | - |
| 1778036455 | 7.22° C | 59% | 982.3 hPa | 0 mm | - | - | - |
| 1778035523 | 7.22° C | 52% | 982.5 hPa | 0 mm | - | - | - |
| 1778034641 | 7.22° C | 49% | 982.5 hPa | 0 mm | - | - | - |
| 1778033722 | 7.78° C | 49% | 982.5 hPa | 0 mm | - | - | - |
| 1778032844 | 7.78° C | 49% | 982.5 hPa | 0 mm | - | - | - |
| 1778031923 | 7.78° C | 44% | 982.2 hPa | 0 mm | - | - | - |
| 1778031043 | 7.78° C | 44% | 982.2 hPa | 0 mm | - | - | - |
| 1778030123 | 8.33° C | 44% | 982.2 hPa | 0 mm | - | - | - |
| 1778029247 | 8.89° C | 44% | 982.2 hPa | 0 mm | - | - | - |
| 1778028322 | 9.44° C | 37% | 982.3 hPa | 0 mm | - | - | - |
* Rain latest hour (hover to see other rain measurements)
** Current wind speed in m/s (hover to see current wind gust speed)